Overview Statistics Trail Chart Weather Telemetry Raw packets
 

This is the latest recevied weather packets stored in our database for station/object G0TQM-11. If no packets are shown the sender has not sent any weather packets the latest 10 day(s).

<< 23 24 25 26 27 28 29 >>
Time Temp. Humidity Pressure Rain* Wind** Luminosity Snow
1787949701 20° C 63% 1001.9 hPa - - - -
1787948501 20.56° C 64% 1001.8 hPa - - - -
1787947301 20.56° C 64% 1001.7 hPa - - - -
1787946100 20.56° C 64% 1001.7 hPa - - - -
1787944900 21.11° C 65% 1001.6 hPa - - - -
1787943700 21.67° C 63% 1001.5 hPa - - - -
1787942500 22.78° C 62% 1001.3 hPa - - - -
1787941300 22.78° C 60% 1001.3 hPa - - - -
1787940100 22.22° C 63% 1001.2 hPa - - - -
1787938900 22.22° C 62% 1001.2 hPa - - - -
1787937699 22.78° C 60% 1001.3 hPa - - - -
1787936499 22.22° C 63% 1001.2 hPa - - - -
1787935299 21.11° C 67% 1001.3 hPa - - - -
1787934098 21.11° C 67% 1001.3 hPa - - - -
1787932898 21.11° C 67% 1001.2 hPa - - - -
1787931698 20.56° C 68% 1001.4 hPa - - - -
1787930497 20.56° C 68% 1001.3 hPa - - - -
1787929297 20.56° C 66% 1001.4 hPa - - - -
1787928097 21.11° C 64% 1001.3 hPa - - - -
1787926897 21.67° C 65% 1001.2 hPa - - - -
1787925697 21.11° C 66% 1001.3 hPa - - - -
1787924497 21.67° C 65% 1001.3 hPa - - - -
1787923302 22.22° C 62% 1001.2 hPa - - - -
1787922101 22.78° C 62% 1000.9 hPa - - - -
1787920901 21.67° C 64% 1000.8 hPa - - - -

* Rain since midnight (hover to see other rain measurements)
** Current wind speed in m/s (hover to see current wind gust speed)